Flag for Canada Weather past 2 weeks in Regina, Saskatchewan, Canada

Now
45 °F

Mostly cloudy.


Feels Like: 41 °F
Forecast: 31 / 51 °F
Wind: 6 mph from South

Location: Regina Weather Station


UV Index: 3 (Moderate)

Visibility: 15 mi


Pressure: 29.88 "Hg

Humidity: 76%

Dew point: 37 °F

Location of ReginaLocation

Historic Weather in Regina

°F

Regina temperature yesterday

Maximum temperature yesterday: 41 °F (at 2:00 AM)
Minimum temperature yesterday: 32 °F (at 7:00 AM)
Average temperature yesterday: 36 °F

Past Weeks' High & Low Weather Summary

 TemperatureHumidityPressure
High59 °F (Apr 8, 4:00 PM)100% (Apr 6, 5:00 AM)30.45 "Hg (Apr 6, 5:00 AM)
Low12 °F (Apr 14, 4:00 AM)40% (Apr 10, 2:00 PM)29.51 "Hg (Apr 9, 6:00 AM)
Average34 °F75%29.99 "Hg
* Reported Apr 5 11:00 AM — Apr 20 11:00 AM, Regina, Weather by CustomWeather, © 2014

Note: Actual official high and low records may vary slightly from our data, if they occured in-between our weather recording intervals... More about our weather records

Advertising

Historic Weather Conditions — Data for Previous 24 hours

 ConditionsComfort  
Time TempWeatherWind HumidityBarometerVisibility
11:00 AM
Apr 20
45 °FMostly cloudy.6 mph76%29.88 "Hg15 mi
10:00 AM45 °FScattered clouds.13 mph76%29.89 "Hg15 mi
9:00 AM43 °FPartly sunny.17 mph76%29.88 "Hg15 mi
8:00 AM37 °FBroken clouds.12 mph87%29.92 "Hg15 mi
7:00 AM34 °FPartly sunny.13 mph87%29.93 "Hg15 mi
6:00 AM32 °FPartly sunny.10 mph93%29.94 "Hg15 mi
5:00 AM30 °FPassing clouds.9 mph93%29.96 "Hg15 mi
4:00 AM28 °FPassing clouds.7 mph100%29.97 "Hg15 mi
3:00 AM28 °FClear.8 mph100%29.98 "Hg15 mi
2:00 AM27 °FClear.6 mph100%29.99 "Hg15 mi
1:00 AM28 °FClear.7 mph100%30.00 "Hg15 mi
12:00 AM28 °FClear.6 mph100%30.00 "Hg15 mi
11:00 PM
Apr 19
32 °FClear.2 mph93%30.00 "Hg15 mi
10:00 PM34 °FPassing clouds.No wind93%30.01 "Hg15 mi
9:00 PM36 °FClear.No wind87%30.00 "Hg15 mi
8:00 PM37 °FPassing clouds.5 mph81%29.98 "Hg15 mi
7:00 PM39 °FPartly sunny.6 mph81%29.99 "Hg15 mi
6:00 PM39 °FPartly sunny.12 mph81%29.99 "Hg15 mi
5:00 PM39 °FOvercast.10 mph81%29.98 "Hg15 mi
4:00 PM39 °FOvercast.14 mph81%29.97 "Hg15 mi
3:00 PM39 °FOvercast.20 mph75%29.95 "Hg15 mi
2:00 PM39 °FOvercast.18 mph81%29.95 "Hg15 mi
1:00 PM37 °FMostly cloudy.21 mph81%29.94 "Hg15 mi
12:00 PM36 °FOvercast.22 mph81%29.93 "Hg15 mi
Weather by CustomWeather, © 2014

See weather overview